Year,Month,Day,Hour,Minute,Value (Times are PST for temperature in C)
2018,08,15,00,00,18.60
2018,08,15,00,01,18.60
2018,08,15,00,02,18.60
2018,08,15,00,03,18.60
2018,08,15,00,04,18.60
2018,08,15,00,05,18.60
2018,08,15,00,06,18.60
2018,08,15,00,07,18.60
2018,08,15,00,08,18.60
2018,08,15,00,09,18.60
2018,08,15,00,10,18.60
2018,08,15,00,11,18.60
2018,08,15,00,12,18.60
2018,08,15,00,13,18.60
2018,08,15,00,14,18.60
2018,08,15,00,15,18.70
2018,08,15,00,16,18.70
2018,08,15,00,17,18.70
2018,08,15,00,18,18.70
2018,08,15,00,19,18.70
2018,08,15,00,20,18.60
2018,08,15,00,21,18.50
2018,08,15,00,22,18.40
2018,08,15,00,23,18.20
2018,08,15,00,24,18.00
2018,08,15,00,25,17.90
2018,08,15,00,26,17.70
2018,08,15,00,27,17.50
2018,08,15,00,28,17.40
2018,08,15,00,29,17.30
2018,08,15,00,30,17.20
2018,08,15,00,31,17.00
2018,08,15,00,32,17.00
2018,08,15,00,33,16.90
2018,08,15,00,34,16.80
2018,08,15,00,35,16.70
2018,08,15,00,36,16.70
2018,08,15,00,37,16.60
2018,08,15,00,38,16.40
2018,08,15,00,39,16.40
2018,08,15,00,40,16.20
2018,08,15,00,41,16.10
2018,08,15,00,42,16.10
2018,08,15,00,43,16.00
2018,08,15,00,44,15.90
2018,08,15,00,45,15.80
2018,08,15,00,46,15.80
2018,08,15,00,47,15.80
2018,08,15,00,48,15.80
2018,08,15,00,49,15.80
2018,08,15,00,50,15.80
2018,08,15,00,51,15.90
2018,08,15,00,52,15.90
2018,08,15,00,53,16.00
2018,08,15,00,54,16.10
2018,08,15,00,55,16.10
2018,08,15,00,56,16.10
2018,08,15,00,57,16.10
2018,08,15,00,58,16.20
2018,08,15,00,59,16.20
2018,08,15,01,00,16.30
2018,08,15,01,01,16.30
2018,08,15,01,02,16.30
2018,08,15,01,03,16.40
2018,08,15,01,04,16.40
2018,08,15,01,05,16.50
2018,08,15,01,06,16.60
2018,08,15,01,07,16.60
2018,08,15,01,08,16.70
2018,08,15,01,09,16.70
2018,08,15,01,10,16.70
2018,08,15,01,11,16.70
2018,08,15,01,12,16.70
2018,08,15,01,13,16.70
2018,08,15,01,14,16.70
2018,08,15,01,15,16.70
2018,08,15,01,16,16.70
2018,08,15,01,17,16.70
2018,08,15,01,18,16.70
2018,08,15,01,19,16.70
2018,08,15,01,20,16.70
2018,08,15,01,21,16.70
2018,08,15,01,22,16.70
2018,08,15,01,23,16.70
2018,08,15,01,24,16.70
2018,08,15,01,25,16.70
2018,08,15,01,26,16.70
2018,08,15,01,27,16.70
2018,08,15,01,28,16.70
2018,08,15,01,29,16.80
2018,08,15,01,30,16.80
2018,08,15,01,31,16.80
2018,08,15,01,32,16.80
2018,08,15,01,33,16.80
2018,08,15,01,34,16.80
2018,08,15,01,35,16.80
2018,08,15,01,36,16.80
2018,08,15,01,37,16.80
2018,08,15,01,38,16.80
2018,08,15,01,39,16.80
2018,08,15,01,40,16.80
2018,08,15,01,41,16.80
2018,08,15,01,42,16.80
2018,08,15,01,43,16.80
2018,08,15,01,44,16.80
2018,08,15,01,45,16.80
2018,08,15,01,46,16.90
2018,08,15,01,47,16.90
2018,08,15,01,48,16.90
2018,08,15,01,49,16.90
2018,08,15,01,50,16.90
2018,08,15,01,51,16.90
2018,08,15,01,52,16.90
2018,08,15,01,53,17.00
2018,08,15,01,54,17.00
2018,08,15,01,55,17.00
2018,08,15,01,56,17.00
2018,08,15,01,57,17.00
2018,08,15,01,58,17.00
2018,08,15,01,59,17.00
2018,08,15,02,00,17.00
2018,08,15,02,01,17.00
2018,08,15,02,02,17.00
2018,08,15,02,03,17.00
2018,08,15,02,04,17.00
2018,08,15,02,05,16.90
2018,08,15,02,06,16.90
2018,08,15,02,07,16.90
2018,08,15,02,08,16.80
2018,08,15,02,09,16.70
2018,08,15,02,10,16.60
2018,08,15,02,11,16.50
2018,08,15,02,12,16.40
2018,08,15,02,13,16.30
2018,08,15,02,14,16.20
2018,08,15,02,15,16.10
2018,08,15,02,16,15.90
2018,08,15,02,17,15.80
2018,08,15,02,18,15.70
2018,08,15,02,19,15.60
2018,08,15,02,20,15.50
2018,08,15,02,21,15.30
2018,08,15,02,22,15.30
2018,08,15,02,23,15.10
2018,08,15,02,24,15.10
2018,08,15,02,25,15.00
2018,08,15,02,26,14.90
2018,08,15,02,27,14.90
2018,08,15,02,28,14.80
2018,08,15,02,29,14.80
2018,08,15,02,30,14.80
2018,08,15,02,31,14.70
2018,08,15,02,32,14.70
2018,08,15,02,33,14.70
2018,08,15,02,34,14.60
2018,08,15,02,35,14.60
2018,08,15,02,36,14.60
2018,08,15,02,37,14.60
2018,08,15,02,38,14.50
2018,08,15,02,39,14.50
2018,08,15,02,40,14.50
2018,08,15,02,41,14.50
2018,08,15,02,42,14.40
2018,08,15,02,43,14.40
2018,08,15,02,44,14.40
2018,08,15,02,45,14.40
2018,08,15,02,46,14.40
2018,08,15,02,47,14.40
2018,08,15,02,48,14.30
2018,08,15,02,49,14.30
2018,08,15,02,50,14.30
2018,08,15,02,51,14.40
2018,08,15,02,52,14.40
2018,08,15,02,53,14.40
2018,08,15,02,54,14.40
2018,08,15,02,55,14.40
2018,08,15,02,56,14.40
2018,08,15,02,57,14.40
2018,08,15,02,58,14.40
2018,08,15,02,59,14.40
2018,08,15,03,00,14.30
2018,08,15,03,01,14.30
2018,08,15,03,02,14.30
2018,08,15,03,03,14.30
2018,08,15,03,04,14.20
2018,08,15,03,05,14.20
2018,08,15,03,06,14.20
2018,08,15,03,07,14.20
2018,08,15,03,08,14.20
2018,08,15,03,09,14.20
2018,08,15,03,10,14.20
2018,08,15,03,11,14.20
2018,08,15,03,12,14.20
2018,08,15,03,13,14.20
2018,08,15,03,14,14.20
2018,08,15,03,15,14.20
2018,08,15,03,16,14.20
2018,08,15,03,17,14.20
2018,08,15,03,18,14.20
2018,08,15,03,19,14.30
2018,08,15,03,20,14.30
2018,08,15,03,21,14.40
2018,08,15,03,22,14.50
2018,08,15,03,23,14.50
2018,08,15,03,24,14.60
2018,08,15,03,25,14.60
2018,08,15,03,26,14.60
2018,08,15,03,27,14.70
2018,08,15,03,28,14.70
2018,08,15,03,29,14.80
2018,08,15,03,30,14.80
2018,08,15,03,31,14.80
2018,08,15,03,32,14.90
2018,08,15,03,33,14.90
2018,08,15,03,34,14.90
2018,08,15,03,35,14.90
2018,08,15,03,36,14.90
2018,08,15,03,37,14.90
2018,08,15,03,38,15.00
2018,08,15,03,39,15.00
2018,08,15,03,40,15.00
2018,08,15,03,41,15.00
2018,08,15,03,42,15.00
2018,08,15,03,43,15.10
2018,08,15,03,44,15.10
2018,08,15,03,45,15.10
2018,08,15,03,46,15.10
2018,08,15,03,47,15.20
2018,08,15,03,48,15.20
2018,08,15,03,49,15.20
2018,08,15,03,50,15.30
2018,08,15,03,51,15.30
2018,08,15,03,52,15.30
2018,08,15,03,53,15.30
2018,08,15,03,54,15.30
2018,08,15,03,55,15.30
2018,08,15,03,56,15.30
2018,08,15,03,57,15.20
2018,08,15,03,58,15.10
2018,08,15,03,59,15.00
2018,08,15,04,00,14.90
2018,08,15,04,01,14.80
2018,08,15,04,02,14.80
2018,08,15,04,03,14.80
2018,08,15,04,04,14.70
2018,08,15,04,05,14.70
2018,08,15,04,06,14.70
2018,08,15,04,07,14.70
2018,08,15,04,08,14.70
2018,08,15,04,09,14.70
2018,08,15,04,10,14.70
2018,08,15,04,11,14.80
2018,08,15,04,12,14.80
2018,08,15,04,13,14.80
2018,08,15,04,14,14.80
2018,08,15,04,15,14.80
2018,08,15,04,16,14.80
2018,08,15,04,17,14.90
2018,08,15,04,18,14.90
2018,08,15,04,19,15.00
2018,08,15,04,20,15.00
2018,08,15,04,21,15.00
2018,08,15,04,22,15.10
2018,08,15,04,23,15.10
2018,08,15,04,24,15.10
2018,08,15,04,25,15.10
2018,08,15,04,26,15.10
2018,08,15,04,27,15.10
2018,08,15,04,28,15.00
2018,08,15,04,29,14.90
2018,08,15,04,30,14.80
2018,08,15,04,31,14.60
2018,08,15,04,32,14.50
2018,08,15,04,33,14.40
2018,08,15,04,34,14.30
2018,08,15,04,35,14.20
2018,08,15,04,36,14.20
2018,08,15,04,37,14.10
2018,08,15,04,38,14.00
2018,08,15,04,39,14.00
2018,08,15,04,40,13.90
2018,08,15,04,41,13.90
2018,08,15,04,42,13.90
2018,08,15,04,43,13.80
2018,08,15,04,44,13.80
2018,08,15,04,45,13.80
2018,08,15,04,46,13.70
2018,08,15,04,47,13.70
2018,08,15,04,48,13.70
2018,08,15,04,49,13.70
2018,08,15,04,50,13.70
2018,08,15,04,51,13.70
2018,08,15,04,52,13.70
2018,08,15,04,53,13.70
2018,08,15,04,54,13.70
2018,08,15,04,55,13.70
2018,08,15,04,56,13.60
2018,08,15,04,57,13.60
2018,08,15,04,58,13.60
2018,08,15,04,59,13.60
2018,08,15,05,00,13.60
2018,08,15,05,01,13.60
2018,08,15,05,02,13.60
2018,08,15,05,03,13.60
2018,08,15,05,04,13.60
2018,08,15,05,05,13.60
2018,08,15,05,06,13.60
2018,08,15,05,07,13.70
2018,08,15,05,08,13.70
2018,08,15,05,09,13.70
2018,08,15,05,10,13.80
2018,08,15,05,11,13.80
2018,08,15,05,12,13.90
2018,08,15,05,13,14.00
2018,08,15,05,14,14.00
2018,08,15,05,15,14.10
2018,08,15,05,16,14.20
2018,08,15,05,17,14.30
2018,08,15,05,18,14.40
2018,08,15,05,19,14.50
2018,08,15,05,20,14.60
2018,08,15,05,21,14.60
2018,08,15,05,22,14.70
2018,08,15,05,23,14.70
2018,08,15,05,24,14.80
2018,08,15,05,25,14.80
2018,08,15,05,26,14.90
2018,08,15,05,27,14.90
2018,08,15,05,28,15.00
2018,08,15,05,29,15.00
2018,08,15,05,30,15.10
2018,08,15,05,31,15.10
2018,08,15,05,32,15.10
2018,08,15,05,33,15.10
2018,08,15,05,34,15.20
2018,08,15,05,35,15.20
2018,08,15,05,36,15.20
2018,08,15,05,37,15.20
2018,08,15,05,38,15.20
2018,08,15,05,39,15.20
2018,08,15,05,40,15.20
2018,08,15,05,41,15.20
2018,08,15,05,42,15.20
2018,08,15,05,43,15.30
2018,08,15,05,44,15.30
2018,08,15,05,45,15.30
2018,08,15,05,46,15.30
2018,08,15,05,47,15.30
2018,08,15,05,48,15.30
2018,08,15,05,49,15.30
2018,08,15,05,50,15.30
2018,08,15,05,51,15.30
2018,08,15,05,52,15.30
2018,08,15,05,53,15.20
2018,08,15,05,54,15.20
2018,08,15,05,55,15.20
2018,08,15,05,56,15.20
2018,08,15,05,57,15.20
2018,08,15,05,58,15.10
2018,08,15,05,59,15.10
2018,08,15,06,00,15.10
2018,08,15,06,01,15.10
2018,08,15,06,02,15.10
2018,08,15,06,03,15.00
2018,08,15,06,04,15.00
2018,08,15,06,05,15.00
2018,08,15,06,06,15.00
2018,08,15,06,07,15.00
2018,08,15,06,08,14.90
2018,08,15,06,09,14.90
2018,08,15,06,10,14.90
2018,08,15,06,11,14.80
2018,08,15,06,12,14.80
2018,08,15,06,13,14.70
2018,08,15,06,14,14.60
2018,08,15,06,15,14.60
2018,08,15,06,16,14.50
2018,08,15,06,17,14.40
2018,08,15,06,18,14.30
2018,08,15,06,19,14.30
2018,08,15,06,20,14.20
2018,08,15,06,21,14.20
2018,08,15,06,22,14.10
2018,08,15,06,23,14.10
2018,08,15,06,24,14.00
2018,08,15,06,25,14.00
2018,08,15,06,26,13.90
2018,08,15,06,27,13.90
2018,08,15,06,28,13.80
2018,08,15,06,29,13.80
2018,08,15,06,30,13.80
2018,08,15,06,31,13.70
2018,08,15,06,32,13.70
2018,08,15,06,33,13.70
2018,08,15,06,34,13.70
2018,08,15,06,35,13.70
2018,08,15,06,36,13.70
2018,08,15,06,37,13.70
2018,08,15,06,38,13.70
2018,08,15,06,39,13.70
2018,08,15,06,40,13.70
2018,08,15,06,41,13.70
2018,08,15,06,42,13.70
2018,08,15,06,43,13.70
2018,08,15,06,44,13.70
2018,08,15,06,45,13.70
2018,08,15,06,46,13.70
2018,08,15,06,47,13.70
2018,08,15,06,48,13.70
2018,08,15,06,49,13.70
2018,08,15,06,50,13.70
2018,08,15,06,51,13.70
2018,08,15,06,52,13.70
2018,08,15,06,53,13.70
2018,08,15,06,54,13.70
2018,08,15,06,55,13.80
2018,08,15,06,56,13.80
2018,08,15,06,57,13.80
2018,08,15,06,58,13.90
2018,08,15,06,59,13.90
2018,08,15,07,00,13.90
2018,08,15,07,01,14.00
2018,08,15,07,02,14.00
2018,08,15,07,03,14.00
2018,08,15,07,04,14.00
2018,08,15,07,05,14.10
2018,08,15,07,06,14.10
2018,08,15,07,07,14.10
2018,08,15,07,08,14.10
2018,08,15,07,09,14.20
2018,08,15,07,10,14.20
2018,08,15,07,11,14.20
2018,08,15,07,12,14.20
2018,08,15,07,13,14.20
2018,08,15,07,14,14.20
2018,08,15,07,15,14.30
2018,08,15,07,16,14.30
2018,08,15,07,17,14.40
2018,08,15,07,18,14.40
2018,08,15,07,19,14.40
2018,08,15,07,20,14.50
2018,08,15,07,21,14.50
2018,08,15,07,22,14.50
2018,08,15,07,23,14.60
2018,08,15,07,24,14.60
2018,08,15,07,25,14.60
2018,08,15,07,26,14.70
2018,08,15,07,27,14.70
2018,08,15,07,28,14.70
2018,08,15,07,29,14.70
2018,08,15,07,30,14.70
2018,08,15,07,31,14.80
2018,08,15,07,32,14.80
2018,08,15,07,33,14.80
2018,08,15,07,34,14.90
2018,08,15,07,35,14.90
2018,08,15,07,36,15.00
2018,08,15,07,37,15.00
2018,08,15,07,38,15.10
2018,08,15,07,39,15.10
2018,08,15,07,40,15.20
2018,08,15,07,41,15.20
2018,08,15,07,42,15.30
2018,08,15,07,43,15.30
2018,08,15,07,44,15.30
2018,08,15,07,45,15.40
2018,08,15,07,46,15.40
2018,08,15,07,47,15.50
2018,08,15,07,48,15.50
2018,08,15,07,49,15.60
2018,08,15,07,50,15.60
2018,08,15,07,51,15.70
2018,08,15,07,52,15.70
2018,08,15,07,53,15.80
2018,08,15,07,54,15.80
2018,08,15,07,55,15.80
2018,08,15,07,56,15.90
2018,08,15,07,57,16.00
2018,08,15,07,58,16.10
2018,08,15,07,59,16.10
2018,08,15,08,00,16.20
2018,08,15,08,01,16.20
2018,08,15,08,02,16.30
2018,08,15,08,03,16.30
2018,08,15,08,04,16.40
2018,08,15,08,05,16.40
2018,08,15,08,06,16.40
2018,08,15,08,07,16.40
2018,08,15,08,08,16.40
2018,08,15,08,09,16.40
2018,08,15,08,10,16.40
2018,08,15,08,11,16.40
2018,08,15,08,12,16.40
2018,08,15,08,13,16.40
2018,08,15,08,14,16.40
2018,08,15,08,15,16.40
2018,08,15,08,16,16.40
2018,08,15,08,17,16.50
2018,08,15,08,18,16.60
2018,08,15,08,19,16.60
2018,08,15,08,20,16.60
2018,08,15,08,21,16.60
2018,08,15,08,22,16.60
2018,08,15,08,23,16.60
2018,08,15,08,24,16.60
2018,08,15,08,25,16.70
2018,08,15,08,26,16.70
2018,08,15,08,27,16.70
2018,08,15,08,28,16.70
2018,08,15,08,29,16.70
2018,08,15,08,30,16.70
2018,08,15,08,31,16.80
2018,08,15,08,32,16.80
2018,08,15,08,33,16.80
2018,08,15,08,34,16.80
2018,08,15,08,35,16.80
2018,08,15,08,36,16.70
2018,08,15,08,37,16.80
2018,08,15,08,38,16.80
2018,08,15,08,39,16.80
2018,08,15,08,40,16.80
2018,08,15,08,41,16.90
2018,08,15,08,42,16.90
2018,08,15,08,43,17.00
2018,08,15,08,44,17.00
2018,08,15,08,45,17.00
2018,08,15,08,46,17.10
2018,08,15,08,47,17.10
2018,08,15,08,48,17.20
2018,08,15,08,49,17.20
2018,08,15,08,50,17.30
2018,08,15,08,51,17.30
2018,08,15,08,52,17.30
2018,08,15,08,53,17.40
2018,08,15,08,54,17.40
2018,08,15,08,55,17.50
2018,08,15,08,56,17.50
2018,08,15,08,57,17.50
2018,08,15,08,58,17.60
2018,08,15,08,59,17.60
2018,08,15,09,00,17.60
2018,08,15,09,01,17.60
2018,08,15,09,02,17.60
2018,08,15,09,03,17.70
2018,08,15,09,04,17.70
2018,08,15,09,05,17.70
2018,08,15,09,06,17.70
2018,08,15,09,07,17.70
2018,08,15,09,08,17.70
2018,08,15,09,09,17.70
2018,08,15,09,10,17.80
2018,08,15,09,11,17.80
2018,08,15,09,12,17.80
2018,08,15,09,13,17.90
2018,08,15,09,14,17.90
2018,08,15,09,15,17.90
2018,08,15,09,16,18.00
2018,08,15,09,17,18.10
2018,08,15,09,18,18.20
2018,08,15,09,19,18.20
2018,08,15,09,20,18.20
2018,08,15,09,21,18.30
2018,08,15,09,22,18.30
2018,08,15,09,23,18.40
2018,08,15,09,24,18.40
2018,08,15,09,25,18.50
2018,08,15,09,26,18.60
2018,08,15,09,27,18.60
2018,08,15,09,28,18.70
2018,08,15,09,29,18.70
2018,08,15,09,30,18.80
2018,08,15,09,31,18.90
2018,08,15,09,32,18.90
2018,08,15,09,33,19.00
2018,08,15,09,34,19.10
2018,08,15,09,35,19.20
2018,08,15,09,36,19.30
2018,08,15,09,37,19.40
2018,08,15,09,38,19.40
2018,08,15,09,39,19.50
2018,08,15,09,40,19.50
2018,08,15,09,41,19.50
2018,08,15,09,42,19.60
2018,08,15,09,43,19.60
2018,08,15,09,44,19.60
2018,08,15,09,45,19.70
2018,08,15,09,46,19.70
2018,08,15,09,47,19.70
2018,08,15,09,48,19.80
2018,08,15,09,49,19.80
2018,08,15,09,50,19.80
2018,08,15,09,51,19.80
2018,08,15,09,52,19.80
2018,08,15,09,53,19.80
2018,08,15,09,54,19.70
2018,08,15,09,55,19.70
2018,08,15,09,56,19.60
2018,08,15,09,57,19.60
2018,08,15,09,58,19.60
2018,08,15,09,59,19.50
2018,08,15,10,00,19.50
2018,08,15,10,01,19.50
2018,08,15,10,02,19.40
2018,08,15,10,03,19.40
2018,08,15,10,04,19.40
2018,08,15,10,05,19.30
2018,08,15,10,06,19.30
2018,08,15,10,07,19.30
2018,08,15,10,08,19.20
2018,08,15,10,09,19.20
2018,08,15,10,10,19.20
2018,08,15,10,11,19.20
2018,08,15,10,12,19.20
2018,08,15,10,13,19.20
2018,08,15,10,14,19.20
2018,08,15,10,15,19.30
2018,08,15,10,16,19.30
2018,08,15,10,17,19.30
2018,08,15,10,18,19.30
2018,08,15,10,19,19.40
2018,08,15,10,20,19.40
2018,08,15,10,21,19.40
2018,08,15,10,22,19.40
2018,08,15,10,23,19.40
2018,08,15,10,24,19.50
2018,08,15,10,25,19.50
2018,08,15,10,26,19.50
2018,08,15,10,27,19.50
2018,08,15,10,28,19.60
2018,08,15,10,29,19.60
2018,08,15,10,30,19.60
2018,08,15,10,31,19.70
2018,08,15,10,32,19.70
2018,08,15,10,33,19.70
2018,08,15,10,34,19.70
2018,08,15,10,35,19.80
2018,08,15,10,36,19.80
2018,08,15,10,37,19.80
2018,08,15,10,38,19.90
2018,08,15,10,39,19.90
2018,08,15,10,40,20.00
2018,08,15,10,41,20.10
2018,08,15,10,42,20.20
2018,08,15,10,43,20.20
2018,08,15,10,44,20.20
2018,08,15,10,45,20.30
2018,08,15,10,46,20.30
2018,08,15,10,47,20.40
2018,08,15,10,48,20.50
2018,08,15,10,49,20.50
2018,08,15,10,50,20.60
2018,08,15,10,51,20.70
2018,08,15,10,52,20.70
2018,08,15,10,53,20.80
2018,08,15,10,54,20.80
2018,08,15,10,55,20.80
2018,08,15,10,56,20.80
2018,08,15,10,57,20.80
2018,08,15,10,58,20.80
2018,08,15,10,59,20.80
2018,08,15,11,00,20.80
2018,08,15,11,01,20.80
2018,08,15,11,02,20.80
2018,08,15,11,03,20.80
2018,08,15,11,04,20.70
2018,08,15,11,05,20.70
2018,08,15,11,06,20.80
2018,08,15,11,07,20.80
2018,08,15,11,08,20.80
2018,08,15,11,09,20.90
2018,08,15,11,10,20.90
2018,08,15,11,11,20.90
2018,08,15,11,12,20.90
2018,08,15,11,13,20.90
2018,08,15,11,14,20.80
2018,08,15,11,15,20.70
2018,08,15,11,16,20.70
2018,08,15,11,17,20.70
2018,08,15,11,18,20.60
2018,08,15,11,19,20.60
2018,08,15,11,20,20.60
2018,08,15,11,21,20.60
2018,08,15,11,22,20.70
2018,08,15,11,23,20.70
2018,08,15,11,24,20.70
2018,08,15,11,25,20.70
2018,08,15,11,26,20.70
2018,08,15,11,27,20.70
2018,08,15,11,28,20.70
2018,08,15,11,29,20.60
2018,08,15,11,30,20.60
2018,08,15,11,31,20.50
2018,08,15,11,32,20.50
2018,08,15,11,33,20.50
2018,08,15,11,34,20.40
2018,08,15,11,35,20.40
2018,08,15,11,36,20.40
2018,08,15,11,37,20.40
2018,08,15,11,38,20.50
2018,08,15,11,39,20.50
2018,08,15,11,40,20.50
2018,08,15,11,41,20.60
2018,08,15,11,42,20.60
2018,08,15,11,43,20.60
2018,08,15,11,44,20.70
2018,08,15,11,45,20.70
2018,08,15,11,46,20.70
2018,08,15,11,47,20.70
2018,08,15,11,48,20.70
2018,08,15,11,49,20.60
2018,08,15,11,50,20.60
2018,08,15,11,51,20.60
2018,08,15,11,52,20.60
2018,08,15,11,53,20.60
2018,08,15,11,54,20.60
2018,08,15,11,55,20.60
2018,08,15,11,56,20.60
2018,08,15,11,57,20.70
2018,08,15,11,58,20.70
2018,08,15,11,59,20.80
2018,08,15,12,00,20.80
2018,08,15,12,01,20.90
2018,08,15,12,02,20.90
2018,08,15,12,03,21.00
2018,08,15,12,04,21.00
2018,08,15,12,05,21.00
2018,08,15,12,06,20.90
2018,08,15,12,07,20.90
2018,08,15,12,08,20.90
2018,08,15,12,09,21.00
2018,08,15,12,10,21.00
2018,08,15,12,11,21.00
2018,08,15,12,12,21.00
2018,08,15,12,13,21.00
2018,08,15,12,14,21.00
2018,08,15,12,15,21.00
2018,08,15,12,16,21.10
2018,08,15,12,17,21.10
2018,08,15,12,18,21.10
2018,08,15,12,19,21.10
2018,08,15,12,20,21.20
2018,08,15,12,21,21.20
2018,08,15,12,22,21.30
2018,08,15,12,23,21.30
2018,08,15,12,24,21.30
2018,08,15,12,25,21.30
2018,08,15,12,26,21.40
2018,08,15,12,27,21.50
2018,08,15,12,28,21.60
2018,08,15,12,29,21.60
2018,08,15,12,30,21.70
2018,08,15,12,31,21.70
2018,08,15,12,32,21.80
2018,08,15,12,33,21.80
2018,08,15,12,34,21.90
2018,08,15,12,35,22.00
2018,08,15,12,36,22.10
2018,08,15,12,37,22.10
2018,08,15,12,38,22.20
2018,08,15,12,39,22.30
2018,08,15,12,40,22.30
2018,08,15,12,41,22.30
2018,08,15,12,42,22.40
2018,08,15,12,43,22.40
2018,08,15,12,44,22.40
2018,08,15,12,45,22.50
2018,08,15,12,46,22.50
2018,08,15,12,47,22.60
2018,08,15,12,48,22.70
2018,08,15,12,49,22.80
2018,08,15,12,50,22.90
2018,08,15,12,51,22.90
2018,08,15,12,52,23.00
2018,08,15,12,53,23.10
2018,08,15,12,54,23.10
2018,08,15,12,55,23.10
2018,08,15,12,56,23.10
2018,08,15,12,57,23.10
2018,08,15,12,58,23.10
2018,08,15,12,59,23.20
2018,08,15,13,00,23.20
2018,08,15,13,01,23.30
2018,08,15,13,02,23.30
2018,08,15,13,03,23.30
2018,08,15,13,04,23.30
2018,08,15,13,05,23.20
2018,08,15,13,06,23.20
2018,08,15,13,07,23.20
2018,08,15,13,08,23.20
2018,08,15,13,09,23.20
2018,08,15,13,10,23.20
2018,08,15,13,11,23.20
2018,08,15,13,12,23.20
2018,08,15,13,13,23.10
2018,08,15,13,14,23.10
2018,08,15,13,15,23.00
2018,08,15,13,16,22.90
2018,08,15,13,17,22.90
2018,08,15,13,18,22.90
2018,08,15,13,19,22.90
2018,08,15,13,20,22.90
2018,08,15,13,21,22.80
2018,08,15,13,22,22.80
2018,08,15,13,23,22.80
2018,08,15,13,24,22.80
2018,08,15,13,25,22.80
2018,08,15,13,26,22.80
2018,08,15,13,27,22.80
2018,08,15,13,28,22.80
2018,08,15,13,29,22.80
2018,08,15,13,30,22.80
2018,08,15,13,31,22.80
2018,08,15,13,32,22.80
2018,08,15,13,33,22.80
2018,08,15,13,34,22.90
2018,08,15,13,35,22.80
2018,08,15,13,36,22.80
2018,08,15,13,37,22.70
2018,08,15,13,38,22.70
2018,08,15,13,39,22.70
2018,08,15,13,40,22.80
2018,08,15,13,41,22.80
2018,08,15,13,42,22.90
2018,08,15,13,43,22.90
2018,08,15,13,44,22.90
2018,08,15,13,45,22.90
2018,08,15,13,46,22.90
2018,08,15,13,47,22.90
2018,08,15,13,48,22.90
2018,08,15,13,49,22.90
2018,08,15,13,50,22.90
2018,08,15,13,51,22.90
2018,08,15,13,52,22.90
2018,08,15,13,53,22.90
2018,08,15,13,54,22.90
2018,08,15,13,55,22.90
2018,08,15,13,56,22.90
2018,08,15,13,57,22.90
2018,08,15,13,58,23.00
2018,08,15,13,59,23.10
2018,08,15,14,00,23.10
2018,08,15,14,01,23.10
2018,08,15,14,02,23.10
2018,08,15,14,03,23.10
2018,08,15,14,04,23.10
2018,08,15,14,05,23.20
2018,08,15,14,06,23.30
2018,08,15,14,07,23.30
2018,08,15,14,08,23.40
2018,08,15,14,09,23.50
2018,08,15,14,10,23.60
2018,08,15,14,11,23.60
2018,08,15,14,12,23.70
2018,08,15,14,13,23.70
2018,08,15,14,14,23.80
2018,08,15,14,15,23.90
2018,08,15,14,16,24.00
2018,08,15,14,17,24.10
2018,08,15,14,18,24.10
2018,08,15,14,19,24.20
2018,08,15,14,20,24.30
2018,08,15,14,21,24.30
2018,08,15,14,22,24.40
2018,08,15,14,23,24.50
2018,08,15,14,24,24.60
2018,08,15,14,25,24.70
2018,08,15,14,26,24.80
2018,08,15,14,27,24.90
2018,08,15,14,28,24.90
2018,08,15,14,29,24.90
2018,08,15,14,30,24.90
2018,08,15,14,31,25.00
2018,08,15,14,32,25.10
2018,08,15,14,33,25.10
2018,08,15,14,34,25.10
2018,08,15,14,35,25.10
2018,08,15,14,36,25.10
2018,08,15,14,37,25.10
2018,08,15,14,38,25.10
2018,08,15,14,39,25.20
2018,08,15,14,40,25.20
2018,08,15,14,41,25.20
2018,08,15,14,42,25.30
2018,08,15,14,43,25.30
2018,08,15,14,44,25.30
2018,08,15,14,45,25.30
2018,08,15,14,46,25.30
2018,08,15,14,47,25.40
2018,08,15,14,48,25.40
2018,08,15,14,49,25.50
2018,08,15,14,50,25.50
2018,08,15,14,51,25.60
2018,08,15,14,52,25.60
2018,08,15,14,53,25.60
2018,08,15,14,54,25.70
2018,08,15,14,55,25.70
2018,08,15,14,56,25.70
2018,08,15,14,57,25.80
2018,08,15,14,58,25.80
2018,08,15,14,59,25.80
2018,08,15,15,00,25.90
2018,08,15,15,01,25.90
2018,08,15,15,02,25.90
2018,08,15,15,03,25.90
2018,08,15,15,04,26.00
2018,08,15,15,05,26.00
2018,08,15,15,06,26.00
2018,08,15,15,07,26.10
2018,08,15,15,08,26.10
2018,08,15,15,09,26.10
2018,08,15,15,10,26.10
2018,08,15,15,11,26.10
2018,08,15,15,12,26.20
2018,08,15,15,13,26.20
2018,08,15,15,14,26.20
2018,08,15,15,15,26.20
2018,08,15,15,16,26.20
2018,08,15,15,17,26.20
2018,08,15,15,18,26.20
2018,08,15,15,19,26.20
2018,08,15,15,20,26.20
2018,08,15,15,21,26.20
2018,08,15,15,22,26.10
2018,08,15,15,23,26.10
2018,08,15,15,24,26.10
2018,08,15,15,25,26.10
2018,08,15,15,26,26.10
2018,08,15,15,27,26.10
2018,08,15,15,28,26.10
2018,08,15,15,29,26.10
2018,08,15,15,30,26.00
2018,08,15,15,31,26.00
2018,08,15,15,32,26.00
2018,08,15,15,33,25.90
2018,08,15,15,34,25.90
2018,08,15,15,35,25.90
2018,08,15,15,36,25.90
2018,08,15,15,37,25.90
2018,08,15,15,38,25.80
2018,08,15,15,39,25.80
2018,08,15,15,40,25.80
2018,08,15,15,41,25.80
2018,08,15,15,42,25.80
2018,08,15,15,43,25.80
2018,08,15,15,44,25.70
2018,08,15,15,45,25.70
2018,08,15,15,46,25.70
2018,08,15,15,47,25.70
2018,08,15,15,48,25.60
2018,08,15,15,49,25.60
2018,08,15,15,50,25.60
2018,08,15,15,51,25.50
2018,08,15,15,52,25.50
2018,08,15,15,53,25.50
2018,08,15,15,54,25.40
2018,08,15,15,55,25.40
2018,08,15,15,56,25.40
2018,08,15,15,57,25.40
2018,08,15,15,58,25.40
2018,08,15,15,59,25.30
2018,08,15,16,00,25.30
2018,08,15,16,01,25.30
2018,08,15,16,02,25.40
2018,08,15,16,03,25.30
2018,08,15,16,04,25.30
2018,08,15,16,05,25.30
2018,08,15,16,06,25.30
2018,08,15,16,07,25.30
2018,08,15,16,08,25.30
2018,08,15,16,09,25.30
2018,08,15,16,10,25.20
2018,08,15,16,11,25.20
2018,08,15,16,12,25.20
2018,08,15,16,13,25.20
2018,08,15,16,14,25.20
2018,08,15,16,15,25.20
2018,08,15,16,16,25.20
2018,08,15,16,17,25.20
2018,08,15,16,18,25.20
2018,08,15,16,19,25.10
2018,08,15,16,20,25.10
2018,08,15,16,21,25.10
2018,08,15,16,22,25.00
2018,08,15,16,23,25.00
2018,08,15,16,24,24.90
2018,08,15,16,25,24.90
2018,08,15,16,26,24.80
2018,08,15,16,27,24.80
2018,08,15,16,28,24.80
2018,08,15,16,29,24.70
2018,08,15,16,30,24.70
2018,08,15,16,31,24.80
2018,08,15,16,32,24.80
2018,08,15,16,33,24.80
2018,08,15,16,34,24.80
2018,08,15,16,35,24.80
2018,08,15,16,36,24.90
2018,08,15,16,37,24.90
2018,08,15,16,38,24.90
2018,08,15,16,39,24.90
2018,08,15,16,40,24.90
2018,08,15,16,41,25.00
2018,08,15,16,42,25.00
2018,08,15,16,43,25.00
2018,08,15,16,44,24.90
2018,08,15,16,45,24.90
2018,08,15,16,46,24.80
2018,08,15,16,47,24.80
2018,08,15,16,48,24.70
2018,08,15,16,49,24.60
2018,08,15,16,50,24.60
2018,08,15,16,51,24.50
2018,08,15,16,52,24.40
2018,08,15,16,53,24.30
2018,08,15,16,54,24.20
2018,08,15,16,55,24.10
2018,08,15,16,56,24.10
2018,08,15,16,57,24.00
2018,08,15,16,58,23.90
2018,08,15,16,59,23.80
2018,08,15,17,00,23.70
2018,08,15,17,01,23.70
2018,08,15,17,02,23.50
2018,08,15,17,03,23.40
2018,08,15,17,04,23.30
2018,08,15,17,05,23.20
2018,08,15,17,06,23.10
2018,08,15,17,07,23.00
2018,08,15,17,08,22.80
2018,08,15,17,09,22.80
2018,08,15,17,10,22.70
2018,08,15,17,11,22.60
2018,08,15,17,12,22.60
2018,08,15,17,13,22.50
2018,08,15,17,14,22.50
2018,08,15,17,15,22.50
2018,08,15,17,16,22.50
2018,08,15,17,17,22.60
2018,08,15,17,18,22.60
2018,08,15,17,19,22.60